Omaha Offutt, NE

3:47 AM CDT on October 21, 2017 (GMT -0500)
Offutt Air Force Base

Weather History for KOFF - November, 2012

Change the Weather History Date:

Monday, November 5, 2012

  Actual Average Record
Temperature  
Mean Temperature 44 °F -  
Max Temperature 47 °F 52 °F 73 °F (2001)
Min Temperature 41 °F 33 °F 24 °F (2010)
Degree Days  
Heating Degree Days 21    
Moisture  
Dew Point 42 °F    
Average Humidity 97    
Maximum Humidity 100    
Minimum Humidity 93    
Precipitation  
Precipitation 0.02 in - - ()
Sea Level Pressure  
Sea Level Pressure 30.11 in    
Wind  
Wind Speed 9 mph (NW)    
Max Wind Speed 17 mph    
Max Gust Speed 23 mph    
Visibility 4 miles    
Events Rain    
Averages and records for this station are not official NWS values.
T = Trace of Precipitation, MM = Missing Value Source: NWS Daily Summary

Daily Weather History Graph

Daily Weather History Graph

Search for Another Location

Airport or City:

Trip Planner

Search our weather history database for the weather conditions in past years. The results will help you decide how hot, cold, wet, or windy it might be!

Date:

Astronomy

Nov. 05, 2012 Rise Set
Actual Time 7:00 AM CST 5:13 PM CST
Civil Twilight 6:31 AM CST 5:42 PM CST
Nautical Twilight 5:58 AM CST 6:15 PM CST
Astronomical Twilight 5:26 AM CST 6:47 PM CST
Moon 10:52 PM CST (11/5) 12:20 PM CST (11/5)
Length of Visible Light 11h 11m
Length of Day
10h 13m
Waning Gibbous, 62% of the Moon is Illuminated
Nov 5
Waning Gibbous
Nov 6
Last Quarter
Nov 13
New
Nov 20
First Quarter
Nov 28
Full

Hourly Weather History & Observations

Time (CST) Temp. Windchill Dew Point Humidity Pressure Visibility Wind Dir Wind Speed Gust Speed Precip Events Conditions
12:16 AM 46.4 °F 41.9 °F 46.4 °F 100% 30.02 in 5.0 mi WNW 9.2 mph - N/A Rain Light Rain
12:54 AM 46.4 °F 41.9 °F 46.4 °F 100% 30.02 in 6.0 mi NW 9.2 mph - N/A Rain Light Rain
12:55 AM 46.6 °F - 45.9 °F 97% 30.02 in 6.0 mi NW 9.2 mph - 0.01 in Rain Light Rain
1:00 AM 46.4 °F 41.9 °F 46.4 °F 100% 30.02 in 6.0 mi WNW 9.2 mph - N/A   Overcast
1:40 AM 46.4 °F 41.9 °F 46.4 °F 100% 30.01 in 6.0 mi WNW 9.2 mph - N/A   Overcast
1:55 AM 47.1 °F - 45.7 °F 95% 30.02 in 5.0 mi NW 9.2 mph - 0.00 in   Overcast
2:23 AM 46.4 °F 39.5 °F 44.6 °F 93% 30.02 in 6.0 mi WNW 17.3 mph - N/A   Overcast
2:55 AM 45.7 °F 39.8 °F 44.6 °F 96% 30.03 in 5.0 mi NW 12.7 mph - N/A   Overcast
3:21 AM 44.6 °F 38.4 °F 44.6 °F 100% 30.03 in 5.0 mi NW 12.7 mph - N/A Rain Light Rain
3:49 AM 44.6 °F 38.1 °F 44.6 °F 100% 30.03 in 4.0 mi NW 13.8 mph - N/A Rain Light Rain
3:55 AM 44.8 °F 38.3 °F 43.7 °F 96% 30.03 in 5.0 mi NW 13.8 mph - 0.00 in Rain Light Rain
4:12 AM 44.6 °F 38.8 °F 42.8 °F 93% 30.03 in 6.0 mi NW 11.5 mph - N/A   Overcast
4:13 AM 44.6 °F 38.8 °F 42.8 °F 93% 30.04 in 6.0 mi NW 11.5 mph - N/A Rain Light Rain
4:42 AM 44.6 °F 38.8 °F 42.8 °F 93% 30.04 in 8.0 mi NW 11.5 mph 20.7 mph N/A Rain Light Rain
4:55 AM 44.2 °F 37.3 °F 42.6 °F 94% 30.04 in 9.0 mi NW 15.0 mph 20.7 mph 0.01 in Rain Light Rain
5:05 AM 44.6 °F 38.4 °F 42.8 °F 93% 30.04 in 9.0 mi NW 12.7 mph - N/A   Light Drizzle
5:15 AM 44.6 °F 39.2 °F 42.8 °F 93% 30.04 in 10.0 mi NW 10.4 mph 21.9 mph N/A   Overcast
5:36 AM 44.6 °F 38.4 °F 42.8 °F 93% 30.04 in 10.0 mi NW 12.7 mph 23.0 mph N/A   Overcast
5:55 AM 43.9 °F 37.9 °F 42.1 °F 93% 30.05 in 10.0 mi NW 11.5 mph 21.9 mph 0.00 in   Overcast
6:31 AM 42.8 °F 37.0 °F 41.0 °F 93% 30.06 in 10.0 mi NNW 10.4 mph 21.9 mph N/A   Overcast
6:48 AM 42.8 °F 36.2 °F 41.0 °F 93% 30.07 in 7.0 mi NNW 12.7 mph 20.7 mph N/A   Overcast
6:50 AM 42.8 °F 36.6 °F 41.0 °F 93% 30.07 in 7.0 mi NNW 11.5 mph 20.7 mph N/A   Overcast
6:55 AM 42.6 °F 37.2 °F 41.4 °F 95% 30.07 in 6.0 mi NNW 9.2 mph 19.6 mph 0.00 in   Overcast
7:04 AM 42.8 °F 36.2 °F 41.0 °F 93% 30.07 in 5.0 mi NNW 12.7 mph 18.4 mph N/A   Overcast
7:44 AM 42.8 °F 37.5 °F 41.0 °F 93% 30.09 in 6.0 mi NNW 9.2 mph - N/A   Overcast
7:46 AM 42.8 °F 36.6 °F 41.0 °F 93% 30.09 in 6.0 mi NNW 11.5 mph - N/A   Overcast
7:49 AM 42.8 °F 38.0 °F 41.0 °F 93% 30.09 in 6.0 mi NNW 8.1 mph - N/A   Overcast
7:55 AM 42.3 °F 37.3 °F 41.4 °F 97% 30.10 in 4.0 mi NNW 8.1 mph - 0.00 in   Light Drizzle
8:08 AM 42.8 °F 36.6 °F 41.0 °F 93% 30.10 in 2.5 mi NNW 11.5 mph - N/A   Light Drizzle
8:18 AM 42.8 °F 37.5 °F 41.0 °F 93% 30.12 in 3.0 mi NNW 9.2 mph - N/A Rain Light Rain
8:27 AM 42.8 °F 38.0 °F 41.0 °F 93% 30.12 in 2.5 mi NNW 8.1 mph - N/A Rain Light Rain
8:55 AM 41.7 °F 36.7 °F 40.6 °F 96% 30.13 in 2.0 mi NNW 8.1 mph - 0.00 in   Overcast
8:57 AM 41.0 °F 35.2 °F 41.0 °F 100% 30.13 in 2.0 mi NW 9.2 mph - N/A Rain Light Rain
9:28 AM 41.0 °F 36.4 °F 41.0 °F 100% 30.14 in 2.5 mi NW 6.9 mph - N/A   Overcast
9:38 AM 41.0 °F 35.8 °F 41.0 °F 100% 30.14 in 2.0 mi North 8.1 mph - N/A   Overcast
9:48 AM 41.0 °F 37.1 °F 41.0 °F 100% 30.15 in 2.0 mi Variable 5.8 mph - N/A   Overcast
9:55 AM 41.5 °F 37.8 °F 40.6 °F 97% 30.15 in 2.0 mi North 5.8 mph - 0.00 in   Overcast
10:35 AM 41.0 °F 35.2 °F 41.0 °F 100% 30.16 in 2.0 mi North 9.2 mph - N/A   Overcast
10:40 AM 41.0 °F 35.2 °F 41.0 °F 100% 30.16 in 2.0 mi NNW 9.2 mph - N/A   Overcast
10:52 AM 42.8 °F 38.0 °F 41.0 °F 93% 30.16 in 3.0 mi North 8.1 mph - N/A   Overcast
10:55 AM 41.9 °F 37.5 °F 41.4 °F 98% 30.16 in 3.0 mi North 6.9 mph - 0.00 in   Overcast
11:55 AM 42.8 °F 38.6 °F 41.7 °F 96% 30.16 in 5.0 mi NNW 6.9 mph - N/A   Overcast
12:14 PM 42.8 °F 39.3 °F 41.0 °F 93% 30.15 in 3.0 mi North 5.8 mph - N/A   Overcast
12:32 PM 42.8 °F 38.0 °F 41.0 °F 93% 30.15 in 2.5 mi NNW 8.1 mph - N/A   Overcast
12:55 PM 42.4 °F 37.5 °F 41.5 °F 97% 30.15 in 2.0 mi NW 8.1 mph - N/A   Overcast
1:08 PM 42.8 °F 38.6 °F 41.0 °F 93% 30.15 in 2.0 mi NNW 6.9 mph - N/A   Overcast
1:26 PM 42.8 °F 38.6 °F 41.0 °F 93% 30.15 in 1.8 mi NW 6.9 mph - N/A   Overcast
1:32 PM 42.8 °F 38.6 °F 41.0 °F 93% 30.14 in 2.0 mi NW 6.9 mph - N/A   Overcast
1:55 PM 42.3 °F 37.3 °F 41.4 °F 97% 30.14 in 2.0 mi NW 8.1 mph - N/A   Overcast
2:15 PM 42.8 °F 38.0 °F 41.0 °F 93% 30.14 in 3.0 mi NW 8.1 mph - N/A   Overcast
2:33 PM 42.8 °F 38.6 °F 41.0 °F 93% 30.14 in 4.0 mi NNW 6.9 mph - N/A   Overcast
2:41 PM 42.8 °F 38.6 °F 41.0 °F 93% 30.14 in 2.5 mi Variable 6.9 mph - N/A   Overcast
2:49 PM 42.8 °F 38.6 °F 41.0 °F 93% 30.14 in 3.0 mi Variable 6.9 mph - N/A   Overcast
2:55 PM 41.9 °F 36.9 °F 40.8 °F 96% 30.14 in 2.5 mi North 8.1 mph - N/A   Overcast
3:03 PM 41.0 °F 37.1 °F 41.0 °F 100% 30.14 in 2.5 mi North 5.8 mph - N/A   Overcast
3:11 PM 41.0 °F 37.1 °F 41.0 °F 100% 30.13 in 3.0 mi NNW 5.8 mph - N/A   Overcast
3:36 PM 42.8 °F 39.3 °F 41.0 °F 93% 30.14 in 4.0 mi NNW 5.8 mph - N/A   Overcast
3:43 PM 41.0 °F 35.8 °F 41.0 °F 100% 30.14 in 2.5 mi NW 8.1 mph - N/A   Overcast
3:45 PM 41.0 °F 35.2 °F 41.0 °F 100% 30.14 in 2.5 mi NW 9.2 mph - N/A   Overcast
3:50 PM 41.0 °F 36.4 °F 41.0 °F 100% 30.14 in 1.8 mi NNW 6.9 mph - N/A   Overcast
3:55 PM 41.9 °F 38.2 °F 40.8 °F 96% 30.14 in 1.8 mi NNW 5.8 mph - N/A   Overcast
4:09 PM 42.8 °F 38.0 °F 41.0 °F 93% 30.16 in 2.0 mi NW 8.1 mph - N/A   Overcast
4:34 PM 41.0 °F 37.1 °F 41.0 °F 100% 30.16 in 3.0 mi NNW 5.8 mph - N/A   Overcast
4:44 PM 41.0 °F 38.0 °F 41.0 °F 100% 30.15 in 4.0 mi Variable 4.6 mph - N/A   Overcast
4:49 PM 41.0 °F 37.1 °F 41.0 °F 100% 30.15 in 4.0 mi North 5.8 mph - N/A   Overcast
4:53 PM 41.0 °F 38.0 °F 41.0 °F 100% 30.15 in 4.0 mi North 4.6 mph - N/A   Overcast
4:55 PM 41.7 °F 38.8 °F 41.0 °F 97% 30.14 in 4.0 mi North 4.6 mph - 0.00 in   Overcast
5:17 PM 41.0 °F 37.1 °F 41.0 °F 100% 30.14 in 2.5 mi NNW 5.8 mph - N/A   Overcast
5:21 PM 41.0 °F 38.0 °F 41.0 °F 100% 30.14 in 3.0 mi NNW 4.6 mph - N/A   Overcast
5:24 PM 41.0 °F 38.0 °F 41.0 °F 100% 30.14 in 3.0 mi NNW 4.6 mph - N/A   Overcast
5:42 PM 41.0 °F 38.0 °F 41.0 °F 100% 30.14 in 2.5 mi North 4.6 mph - N/A   Overcast
5:55 PM 41.4 °F - 40.6 °F 97% 30.14 in 10.0 mi Calm Calm - N/A   Overcast
5:59 PM 41.0 °F - 41.0 °F 100% 30.13 in 10.0 mi Calm Calm - N/A   Overcast
6:04 PM 41.0 °F - 41.0 °F 100% 30.11 in 1.4 mi Variable 1.2 mph - N/A   Overcast
6:16 PM 41.0 °F - 41.0 °F 100% 30.13 in 1.4 mi Calm Calm - N/A   Overcast
6:29 PM 41.0 °F 39.0 °F 41.0 °F 100% 30.11 in 1.4 mi North 3.5 mph - N/A   Overcast
6:40 PM 41.0 °F - 41.0 °F 100% 30.11 in 1.4 mi Calm Calm - N/A   Overcast
6:55 PM 41.4 °F 38.4 °F 40.6 °F 97% 30.14 in 1.4 mi WNW 4.6 mph - N/A   Overcast
7:59 PM 41.0 °F - 41.0 °F 100% 30.23 in 1.8 mi West 2.3 mph - N/A   Overcast
8:26 PM 41.0 °F - 39.2 °F 93% 30.13 in 2.0 mi Calm Calm - N/A   Overcast
8:48 PM 41.0 °F - 41.0 °F 100% 30.13 in 2.0 mi Calm Calm - N/A   Overcast
8:55 PM 41.7 °F - 40.1 °F 94% 30.13 in 2.0 mi Calm Calm - N/A   Overcast
9:06 PM 41.0 °F - 41.0 °F 100% 30.13 in 2.0 mi Calm Calm - N/A   Overcast
9:22 PM 41.0 °F 39.0 °F 41.0 °F 100% 30.14 in 2.0 mi WSW 3.5 mph - N/A   Overcast
9:40 PM 41.0 °F 38.0 °F 41.0 °F 100% 30.12 in 2.0 mi South 4.6 mph - N/A   Overcast
9:55 PM 41.5 °F 39.6 °F 40.5 °F 96% 30.12 in 2.0 mi South 3.5 mph - N/A   Overcast
10:28 PM 41.0 °F 37.1 °F 41.0 °F 100% 30.10 in 2.5 mi South 5.8 mph - N/A   Overcast
10:55 PM 41.7 °F 39.8 °F 40.6 °F 96% 30.09 in 3.0 mi SSW 3.5 mph - N/A   Overcast
11:55 PM 41.7 °F 38.0 °F 40.3 °F 95% 30.08 in 4.0 mi SSW 5.8 mph - N/A   Overcast